Langdon, ND

1:30 AM CDT on April 28, 2017 (GMT -0500)
Langdon

Weather History for KD55 - August, 2013

Change the Weather History Date:

Friday, August 9, 2013

  Actual Average (KDVL) Record (KDVL)
Temperature  
Mean Temperature 55 °F -  
Max Temperature 64 °F 81 °F 93 °F (1985)
Min Temperature 46 °F 55 °F 45 °F (1967)
Degree Days  
Heating Degree Days 10    
Growing Degree Days 5 (Base 50)    
Moisture  
Dew Point 54 °F    
Average Humidity 100    
Maximum Humidity 100    
Minimum Humidity 100    
Precipitation  
Precipitation 0.00 in - - ()
Sea Level Pressure  
Sea Level Pressure 30.10 in    
Wind  
Wind Speed 10 mph (NW)    
Max Wind Speed 17 mph    
Max Gust Speed 24 mph    
Visibility 10 miles    
Events      
Averages and records for this station are not official NWS values.
T = Trace of Precipitation, MM = Missing Value Source: NWS Daily Summary

Daily Weather History Graph

Daily Weather History Graph

Search for Another Location

Airport or City:

Trip Planner

Search our weather history database for the weather conditions in past years. The results will help you decide how hot, cold, wet, or windy it might be!

Date:

Astronomy

Aug. 09, 2013 Rise Set
Actual Time 6:18 AM CDT 8:58 PM CDT
Civil Twilight 5:42 AM CDT 9:34 PM CDT
Nautical Twilight 4:57 AM CDT 10:19 PM CDT
Astronomical Twilight 4:03 AM CDT 11:12 PM CDT
Moon 9:26 AM CDT (8/9) 9:46 PM CDT (8/9)
Length of Visible Light 15h 51m
Length of Day
14h 39m
Waxing Crescent, 8% of the Moon is Illuminated
Aug 9
Waxing Crescent
Aug 14
First Quarter
Aug 20
Full
Aug 28
Last Quarter
Sep 5
New

Hourly Weather History & Observations

Time (CDT) Temp. Windchill Dew Point Humidity Pressure Visibility Wind Dir Wind Speed Gust Speed Precip Events Conditions
12:15 AM 48.2 °F - 48.2 °F 100% 30.06 in 10.0 mi West 9.2 mph - N/A   Clear
12:35 AM 48.2 °F - 48.2 °F 100% 30.06 in 10.0 mi West 8.1 mph - N/A   Clear
12:55 AM 48.2 °F - 48.2 °F 100% 30.06 in 10.0 mi West 6.9 mph - N/A   Clear
1:15 AM 48.2 °F - 48.2 °F 100% 30.06 in 10.0 mi West 8.1 mph - N/A   Clear
1:35 AM 48.2 °F - 48.2 °F 100% 30.06 in 10.0 mi West 6.9 mph - N/A   Partly Cloudy
1:55 AM 46.4 °F 42.4 °F 46.4 °F 100% 30.06 in 10.0 mi West 8.1 mph - N/A   Partly Cloudy
2:15 AM 46.4 °F 42.4 °F 46.4 °F 100% 30.06 in 10.0 mi West 8.1 mph - N/A   Clear
2:35 AM 48.2 °F - 48.2 °F 100% 30.06 in 10.0 mi West 9.2 mph - N/A   Partly Cloudy
2:55 AM 48.2 °F - 48.2 °F 100% 30.06 in 10.0 mi West 10.4 mph - N/A   Clear
3:15 AM 48.2 °F - 48.2 °F 100% 30.05 in 10.0 mi WNW 10.4 mph - N/A   Clear
3:35 AM 48.2 °F - 48.2 °F 100% 30.05 in 10.0 mi WNW 10.4 mph - N/A   Clear
3:55 AM 46.4 °F 42.9 °F 46.4 °F 100% 30.05 in 10.0 mi West 6.9 mph - N/A   Clear
4:15 AM 46.4 °F 42.9 °F 46.4 °F 100% 30.04 in 10.0 mi WNW 6.9 mph - N/A   Clear
4:35 AM 46.4 °F 41.5 °F 46.4 °F 100% 30.05 in 10.0 mi WNW 10.4 mph - N/A   Clear
4:55 AM 46.4 °F 41.5 °F 46.4 °F 100% 30.04 in 10.0 mi WNW 10.4 mph - N/A   Clear
5:15 AM 46.4 °F 41.5 °F 46.4 °F 100% 30.04 in 10.0 mi WNW 10.4 mph - N/A   Clear
5:35 AM 46.4 °F 41.1 °F 46.4 °F 100% 30.04 in 10.0 mi WNW 11.5 mph - N/A   Clear
5:55 AM 46.4 °F 41.9 °F 46.4 °F 100% 30.05 in 10.0 mi WNW 9.2 mph - N/A   Clear
6:15 AM 46.4 °F 42.4 °F 46.4 °F 100% 30.05 in 10.0 mi WNW 8.1 mph - N/A   Clear
6:35 AM 46.4 °F 41.5 °F 46.4 °F 100% 30.05 in 10.0 mi WNW 10.4 mph - N/A   Clear
6:55 AM 46.4 °F 41.5 °F 46.4 °F 100% 30.06 in 10.0 mi WNW 10.4 mph - N/A   Partly Cloudy
7:15 AM 48.2 °F - 48.2 °F 100% 30.06 in 10.0 mi WNW 10.4 mph - N/A   Mostly Cloudy
7:35 AM 48.2 °F - 48.2 °F 100% 30.07 in 10.0 mi WNW 10.4 mph - N/A   Overcast
7:55 AM 50.0 °F - 50.0 °F 100% 30.07 in 10.0 mi WNW 11.5 mph 17.3 mph N/A   Overcast
8:15 AM 50.0 °F - 50.0 °F 100% 30.07 in 10.0 mi WNW 11.5 mph - N/A   Overcast
8:35 AM 50.0 °F - 50.0 °F 100% 30.07 in 10.0 mi WNW 13.8 mph - N/A   Overcast
8:55 AM 51.8 °F - 51.8 °F 100% 30.07 in 10.0 mi WNW 13.8 mph 18.4 mph N/A   Overcast
9:15 AM 53.6 °F - 53.6 °F 100% 30.07 in 10.0 mi WNW 15.0 mph - N/A   Overcast
9:35 AM 53.6 °F - 53.6 °F 100% 30.08 in 10.0 mi NW 12.7 mph - N/A   Overcast
9:55 AM 55.4 °F - 55.4 °F 100% 30.09 in 10.0 mi NW 13.8 mph 20.7 mph N/A   Overcast
10:15 AM 55.4 °F - 55.4 °F 100% 30.09 in 10.0 mi NW 13.8 mph 23.0 mph N/A   Overcast
10:35 AM 57.2 °F - 57.2 °F 100% 30.09 in 10.0 mi NNW 12.7 mph 20.7 mph N/A   Overcast
10:55 AM 57.2 °F - 57.2 °F 100% 30.09 in 10.0 mi NNW 16.1 mph 20.7 mph N/A   Overcast
11:15 AM 57.2 °F - 57.2 °F 100% 30.10 in 10.0 mi NNW 13.8 mph - N/A   Overcast
11:35 AM 57.2 °F - 57.2 °F 100% 30.10 in 10.0 mi NNW 12.7 mph - N/A   Overcast
11:55 AM 57.2 °F - 57.2 °F 100% 30.10 in 10.0 mi NNW 15.0 mph 19.6 mph N/A   Overcast
12:15 PM 59.0 °F - 59.0 °F 100% 30.11 in 10.0 mi NNW 16.1 mph 19.6 mph N/A   Overcast
12:35 PM 59.0 °F - 59.0 °F 100% 30.11 in 10.0 mi NNW 15.0 mph - N/A   Overcast
12:55 PM 59.0 °F - 59.0 °F 100% 30.11 in 10.0 mi NNW 16.1 mph 19.6 mph N/A   Overcast
1:15 PM 59.0 °F - 59.0 °F 100% 30.11 in 10.0 mi NNW 16.1 mph - N/A   Overcast
1:35 PM 60.8 °F - 60.8 °F 100% 30.12 in 10.0 mi NNW 17.3 mph 21.9 mph N/A   Mostly Cloudy
1:55 PM 62.6 °F - 62.6 °F 100% 30.12 in 10.0 mi NNW 16.1 mph 21.9 mph N/A   Mostly Cloudy
2:15 PM 62.6 °F - 62.6 °F 100% 30.12 in 10.0 mi NNW 16.1 mph 21.9 mph N/A   Mostly Cloudy
2:35 PM 59.0 °F - 59.0 °F 100% 30.13 in 10.0 mi NNW 16.1 mph 20.7 mph N/A   Scattered Clouds
2:55 PM 62.6 °F - 62.6 °F 100% 30.12 in 10.0 mi NNW 15.0 mph 21.9 mph N/A   Mostly Cloudy
3:15 PM 62.6 °F - 62.6 °F 100% 30.13 in 10.0 mi NNW 16.1 mph - N/A   Overcast
3:35 PM 62.6 °F - 62.6 °F 100% 30.12 in 10.0 mi North 15.0 mph - N/A   Mostly Cloudy
3:55 PM 62.6 °F - 62.6 °F 100% 30.13 in 10.0 mi North 15.0 mph - N/A   Mostly Cloudy
4:15 PM 62.6 °F - 62.6 °F 100% 30.13 in 10.0 mi North 13.8 mph 24.2 mph N/A   Scattered Clouds
4:35 PM 64.4 °F - 64.4 °F 100% 30.13 in 10.0 mi North 16.1 mph 23.0 mph N/A   Partly Cloudy
4:55 PM 62.6 °F - 62.6 °F 100% 30.13 in 10.0 mi North 17.3 mph 23.0 mph N/A   Partly Cloudy
5:15 PM 64.4 °F - 64.4 °F 100% 30.13 in 10.0 mi NNE 15.0 mph 23.0 mph N/A   Scattered Clouds
5:35 PM 62.6 °F - 62.6 °F 100% 30.13 in 10.0 mi North 15.0 mph 23.0 mph N/A   Scattered Clouds
5:55 PM 62.6 °F - 62.6 °F 100% 30.14 in 10.0 mi North 15.0 mph - N/A   Mostly Cloudy
6:15 PM 60.8 °F - 60.8 °F 100% 30.15 in 10.0 mi North 13.8 mph 18.4 mph N/A   Mostly Cloudy
6:35 PM 59.0 °F - 59.0 °F 100% 30.14 in 10.0 mi North 11.5 mph - N/A   Overcast
6:55 PM 59.0 °F - 59.0 °F 100% 30.14 in 10.0 mi North 12.7 mph 18.4 mph N/A   Overcast
7:15 PM 59.0 °F - 59.0 °F 100% 30.15 in 10.0 mi North 12.7 mph - N/A   Mostly Cloudy
7:35 PM 59.0 °F - 59.0 °F 100% 30.14 in 10.0 mi NNE 11.5 mph - N/A   Mostly Cloudy
7:55 PM 59.0 °F - 59.0 °F 100% 30.15 in 10.0 mi North 11.5 mph - N/A   Mostly Cloudy
8:15 PM 59.0 °F - 59.0 °F 100% 30.15 in 10.0 mi North 9.2 mph - N/A   Mostly Cloudy
8:55 PM 57.2 °F - 57.2 °F 100% 30.16 in 10.0 mi North 5.8 mph - N/A   Mostly Cloudy
9:15 PM 55.4 °F - 55.4 °F 100% 30.17 in 10.0 mi Calm Calm - N/A   Mostly Cloudy
9:35 PM 55.4 °F - 55.4 °F 100% 30.17 in 10.0 mi North 3.5 mph - N/A   Scattered Clouds
9:55 PM 53.6 °F - 53.6 °F 100% 30.17 in 10.0 mi North 3.5 mph - N/A   Overcast
10:15 PM 53.6 °F - 53.6 °F 100% 30.18 in 10.0 mi Calm Calm - N/A   Overcast
10:35 PM 53.6 °F - 53.6 °F 100% 30.18 in 10.0 mi Calm Calm - N/A   Scattered Clouds
10:55 PM 53.6 °F - 53.6 °F 100% 30.19 in 10.0 mi Calm Calm - N/A   Mostly Cloudy
11:15 PM 53.6 °F - 53.6 °F 100% 30.19 in 10.0 mi West 3.5 mph - N/A   Overcast
11:35 PM 53.6 °F - 53.6 °F 100% 30.19 in 10.0 mi West 4.6 mph - N/A   Overcast
11:55 PM 53.6 °F - 53.6 °F 100% 30.19 in 10.0 mi West 4.6 mph - N/A   Overcast